EW2795 Weather Reports


Display with metric or nautical units.
time (UTC)temp
F
wind
direction
speed
MPH
gust
MPH
rain 1hr
in
rain 24hr
in
rain mn
in
humidity
%
barometer
mb
20260906110054 57 41 0.0 0.0 0.00 0.00 0.00 95 1013.7
20260906104542 57 41 0.0 0.0 0.00 0.00 0.00 95 1013.7
20260906103026 57 41 0.0 0.0 0.00 0.00 0.00 95 1013.7
20260906101519 58 41 0.0 0.0 0.00 0.00 0.00 94 1013.6
20260906100011 58 41 0.0 0.0 0.00 0.00 0.00 94 1013.5
20260906094505 58 41 0.0 0.0 0.00 0.00 0.00 94 1013.3
20260906093100 59 41 0.0 0.0 0.00 0.00 0.00 94 1013.3
20260906091544 59 41 0.0 0.0 0.00 0.00 0.00 94 1013.4
20260906090039 59 41 0.0 0.0 0.00 0.00 0.00 94 1013.3
20260906084531 59 41 0.0 0.0 0.00 0.00 0.00 94 1013.2
20260906083028 59 42 0.0 0.0 0.00 0.00 0.00 94 1013.2
20260906081536 59 42 0.0 0.0 0.00 0.00 0.00 94 1013.1
20260906080008 60 42 0.0 0.0 0.00 0.00 0.00 94 1013.0
20260906074559 60 43 0.0 0.0 0.00 0.00 0.00 93 1012.8
20260906073051 60 42 0.0 0.0 0.00 0.00 0.00 93 1012.7
20260906071532 60 42 0.0 0.0 0.00 0.00 0.00 92 1012.6
20260906070024 61 43 0.0 0.0 0.00 0.00 0.00 91 1012.6
20260906064508 61 42 0.0 0.0 0.00 0.00 0.00 91 1012.7
20260906063054 62 43 0.0 0.0 0.00 0.00 0.00 89 1012.8
20260906063004 62 43 0.0 0.0 0.00 0.00 0.00 89 1012.8
20260906061601 62 43 0.0 0.0 0.00 0.00 0.00 88 1012.7
20260906060038 63 43 0.0 0.0 0.00 0.00 0.00 87 1012.6
20260906054523 64 42 1.0 0.0 0.00 0.00 0.00 86 1012.4
20260906053011 64 43 1.0 0.0 0.00 0.00 0.00 85 1012.4
20260906051553 64 57 1.0 0.0 0.00 0.00 0.00 83 1012.2
20260906050101 65 58 2.0 0.0 0.00 0.00 0.00 83 1012.1
20260906044536 65 57 3.0 0.0 0.00 0.00 0.00 83 1012.0
20260906043028 66 63 2.0 0.0 0.00 0.00 0.00 82 1011.9
20260906041510 66 61 2.0 0.0 0.00 0.00 0.00 82 1011.8
20260906040111 67 28 2.0 0.0 0.00 0.00 0.00 81 1011.8
20260906034539 67 64 2.0 0.0 0.00 0.00 0.31 83 1012.0
20260906033039 67 74 2.0 0.0 0.00 0.00 0.31 84 1012.0
20260906031537 67 19 1.0 0.0 0.00 0.00 0.31 86 1011.8
20260906030121 68 42 1.0 0.0 0.00 0.00 0.31 85 1011.8
20260906024545 68 355 2.0 0.0 0.00 0.00 0.31 83 1012.0
20260906023032 69 41 1.0 0.0 0.00 0.00 0.31 84 1012.0
20260906021526 69 28 2.0 0.0 0.00 0.00 0.31 82 1011.9
20260906020021 70 74 3.0 0.0 0.00 0.00 0.31 81 1011.7
20260906014507 71 37 3.0 0.0 0.00 0.00 0.31 85 1011.7
20260906013059 71 48 4.0 0.0 0.00 0.00 0.31 86 1011.3
20260906011552 72 50 2.0 0.0 0.00 0.00 0.31 86 1011.2
20260906010038 73 67 2.0 0.0 0.00 0.00 0.31 87 1010.9
20260906004525 74 27 4.0 0.0 0.00 0.00 0.31 86 1010.8
20260906003017 74 60 4.0 0.0 0.00 0.00 0.31 87 1010.7
20260906001505 75 46 3.0 0.0 0.00 0.00 0.31 86 1010.8
20260906000056 75 52 2.0 0.0 0.00 0.00 0.31 86 1010.8
20260905234547 76 41 3.0 0.0 0.00 0.00 0.31 85 1010.6
20260905233030 77 45 2.0 0.0 0.00 0.00 0.31 83 1010.4
20260905231527 78 79 4.0 0.0 0.00 0.00 0.31 83 1010.2
20260905230017 78 72 4.0 0.0 0.00 0.00 0.31 82 1009.8
20260905224505 79 40 2.0 0.0 0.00 0.00 0.31 81 1009.6
20260905223057 79 51 1.0 0.0 0.00 0.00 0.31 81 1009.5
20260905221544 81 41 2.0 0.0 0.00 0.00 0.31 78 1009.4
20260905220040 82 48 1.0 0.0 0.00 0.00 0.31 73 1009.3
20260905214528 81 280 1.0 0.0 0.00 0.00 0.31 77 1009.3
20260905213024 81 347 1.0 0.0 0.00 0.00 0.31 76 1009.4
20260905211514 82 40 1.0 0.0 0.00 0.00 0.31 72 1009.3
20260905210004 82 294 0.0 0.0 0.00 0.00 0.31 75 1009.4
20260905204556 82 296 0.0 0.0 0.00 0.00 0.31 74 1009.4
20260905203050 82 281 1.0 0.0 0.00 0.00 0.31 73 1009.6
20260905201538 82 24 1.0 0.0 0.00 0.00 0.31 71 1009.6
20260905200044 83 268 2.0 0.0 0.00 0.00 0.31 69 1009.7
20260905194518 84 12 1.0 0.0 0.00 0.00 0.31 69 1009.7
20260905193022 84 322 1.0 0.0 0.00 0.00 0.31 73 1009.9
20260905191506 82 304 2.0 0.0 0.00 0.00 0.31 69 1010.2
20260905184555 83 32 0.0 0.0 0.00 0.00 0.31 67 1010.4
20260905183045 83 24 2.0 0.0 0.00 0.00 0.31 66 1010.5
20260905181536 83 226 1.0 0.0 0.00 0.00 0.31 66 1010.4
20260905180023 82 265 2.0 0.0 0.00 0.00 0.31 70 1010.5
20260905174512 82 26 0.0 0.0 0.00 0.00 0.31 72 1010.4
20260905173054 82 38 1.0 0.0 0.00 0.00 0.31 69 1010.5
20260905171544 82 40 2.0 0.0 0.00 0.00 0.31 73 1010.8
20260905170043 82 245 2.0 0.0 0.00 0.00 0.31 70 1010.9
20260905164533 81 53 0.0 0.0 0.00 0.00 0.31 72 1010.8
20260905163013 81 69 2.0 0.0 0.00 0.00 0.31 77 1010.8
20260905161556 81 57 1.0 0.0 0.00 0.00 0.31 74 1010.8
20260905160051 80 333 0.0 0.0 0.00 0.00 0.31 72 1011.0
20260905154535 80 311 0.0 0.0 0.00 0.00 0.31 77 1010.8
20260905153045 79 323 1.0 0.0 0.00 0.00 0.31 78 1010.9
20260905151514 77 24 1.0 0.0 0.00 0.00 0.31 81 1010.9
20260905150056 74 32 1.0 0.0 0.00 0.00 0.31 88 1010.9
20260905144549 72 32 2.0 0.0 0.00 0.00 0.31 93 1011.0
20260905143038 71 321 0.0 0.0 0.00 0.00 0.31 97 1011.0
20260905141523 70 320 0.0 0.0 0.00 0.00 0.31 97 1011.0
20260905140108 70 319 0.0 0.0 0.00 0.00 0.31 97 1011.0
20260905140010 70 319 0.0 0.0 0.00 0.00 0.31 97 1011.0
20260905134545 69 321 0.0 0.0 0.00 0.00 0.31 97 1010.8
20260905133039 69 304 0.0 0.0 0.00 0.00 0.31 97 1011.0
20260905131531 69 304 0.0 0.0 0.00 0.00 0.31 97 1011.1
20260905130018 68 304 0.0 0.0 0.00 0.00 0.31 97 1011.3
20260905124553 68 304 0.0 0.0 0.00 0.00 0.31 97 1011.4
20260905123051 68 304 0.0 0.0 0.00 0.00 0.31 97 1011.8
20260905121550 68 304 0.0 0.0 0.00 0.00 0.31 97 1011.9
20260905120031 68 304 1.0 0.0 0.00 0.00 0.31 97 1012.0
20260905114519 68 288 2.0 0.0 0.00 0.00 0.31 97 1011.7
20260905113058 68 217 3.0 0.0 0.00 0.00 0.31 97 1010.1
20260905113002 68 218 3.0 0.0 0.00 0.00 0.31 97 1010.1
20260905111606 68 176 5.0 0.0 0.00 0.00 0.31 97 1009.4